RH
62 65 63 49 54 56 59 64 75 75 72 65 70 64 71 70 73 76 69 70 68 77 78 77 78 80 80 81 77 76 81 72
58 62 60 48 52 56 58 68 73 65 60 59 60 62 63 71 69 68 70 68 69 71 79 78 78 78 79 74 80 81 80 71
60 60 53 54 53 54 58 62 62 64 58 53 51 53 63 66 73 70 70 68 70 67 76 78 76 77 79 79 82 83 83 79
58 59 50 52 54 54 57 61 56 58 55 51 55 57 65 73 71 71 70 68 69 71 72 75 76 79 84 81 81 80 85 83
53 55 51 52 52 50 54 57 53 53 54 51 48 49 56 67 65 71 71 64 65 68 71 73 79 82 80 77 77 82 82 89
55 52 48 49 49 48 55 55 51 48 49 46 48 52 59 64 66 68 71 65 62 63 69 73 77 81 80 76 84 82 82 89
47 50 44 48 45 47 54 54 50 54 49 48 54 58 56 59 69 71 71 67 66 64 63 73 73 76 76 80 80 82 84 86
42 52 45 50 49 48 53 52 50 52 50 48 62 49 50 55 60 67 71 68 66 64 67 73 73 72 71 77 77 81 84 91
47 50 44 50 50 50 52 51 52 49 61 62 53 49 53 56 59 59 71 65 64 62 68 69 68 67 68 76 78 79 87 91
51 50 45 51 52 52 52 50 51 54 62 57 54 56 57 61 64 64 65 63 57 64 67 68 70 69 71 78 80 82 82 92
49 49 50 53 52 55 52 52 54 58 58 53 60 59 57 60 60 64 65 66 66 71 68 72 72 73 76 78 82 81 82 87
52 51 50 53 55 56 54 57 60 61 56 59 64 63 71 74 74 70 72 74 73 72 73 77 79 79 79 81 80 82 84 86
58 74 64 68 69 65 70 66 64 61 57 64 75 79 76 80 81 76 74 73 71 72 74 75 78 79 81 82 82 84 86 89
70 75 83 90 77 80 73 74 74 70 67 76 77 81 81 84 82 78 76 75 76 76 77 79 78 81 80 83 84 84 86 88
65 74 78 77 77 92 93 80 79 79 79 77 81 86 86 86 84 81 75 70 74 78 80 80 83 80 75 80 83 86 83 86
68 75 78 78 84 85 80 83 89 89 88 86 95 93 91 90 87 78 71 73 76 74 75 77 75 79 81 80 80 85 84 84
63 69 74 81 80 81 78 79 88 85 93 94 97 97 100 91 84 78 79 79 81 87 88 78 81 70 73 74 83 89 83 83
62 70 72 76 78 82 77 78 81 85 93 99 97 99 99 93 82 84 91 92 92 92 92 90 92 95 76 76 80 93 94 95
54 67 74 78 80 79 78 79 83 89 91 94 95 95 96 93 92 93 94 94 94 94 95 92 92 94 74 75 83 94 95 96
Wind_Speed
23 24 21 19 19 17 15 13 14 10 7 6 6 6 5 6 5 5 6 3 5 5 5 5 4 4 4 4 5 4 5 7
25 25 21 24 22 19 19 17 13 10 9 9 7 8 7 5 5 7 6 5 5 6 4 5 5 5 6 6 3 5 6 8
23 24 21 24 26 22 19 17 13 10 8 6 5 8 4 5 4 6 6 6 5 6 5 5 6 5 6 5 5 3 4 8
24 24 25 25 26 26 23 20 17 11 9 7 6 6 6 4 4 4 4 6 6 6 6 6 6 5 5 4 5 7 4 5
26 24 23 26 25 23 24 24 22 14 11 10 15 9 11 5 6 5 5 6 5 6 6 6 6 5 5 4 5 6 5 4
26 30 28 25 26 24 21 22 21 18 14 15 12 10 5 7 8 9 8 5 6 6 6 6 6 5 4 6 6 8 5 4
27 28 24 22 21 21 21 22 19 13 17 16 13 12 12 11 10 8 6 5 4 6 6 6 6 5 5 5 6 7 6 5
23 25 24 25 26 24 22 23 20 15 15 15 10 13 14 13 12 9 10 6 4 5 6 6 4 5 5 6 6 7 5 5
26 30 27 26 26 25 24 23 21 17 13 11 12 13 9 9 9 9 6 7 6 6 6 6 6 6 5 6 5 4 6 5
26 22 21 23 23 23 24 22 19 16 16 13 13 11 10 8 9 10 8 8 7 7 6 6 6 6 6 7 5 5 5 5
17 18 18 14 16 16 19 18 18 17 16 15 10 10 10 9 10 11 9 8 8 8 7 7 6 6 7 7 6 5 6 4
12 12 17 18 18 16 15 17 17 16 16 13 14 10 9 9 9 9 10 9 8 8 8 7 6 6 6 7 6 6 6 6
8 9 11 15 17 17 15 15 17 16 15 15 13 12 10 10 10 10 10 9 9 8 7 7 7 6 6 7 7 5 6 5
11 7 9 13 15 13 15 15 16 14 15 16 14 12 11 11 10 10 10 10 10 7 7 7 6 6 6 7 7 6 5 5
12 10 11 14 15 14 14 15 14 15 16 16 15 12 10 10 10 10 9 11 10 8 7 7 6 6 6 6 6 6 5 6
14 15 11 10 11 12 14 15 14 15 15 15 14 10 10 10 10 10 10 11 10 9 9 7 7 6 3 5 6 6 6 6
15 18 19 18 18 16 15 15 15 16 14 12 14 13 10 10 10 9 9 9 9 7 8 9 7 5 6 13 8 6 6 6
17 18 19 18 17 16 18 18 17 16 14 13 13 14 12 10 10 10 10 8 9 11 10 9 7 3 12 13 13 5 6 5
15 14 14 15 15 16 15 14 15 15 15 15 14 13 12 9 10 11 9 8 10 10 9 8 6 3 13 15 15 6 6 6
Wind_Direction
175 175 178 152 155 156 149 149 148 145 137 131 114 118 109 120 126 130 125 107 89 115 105 83 86 79 61 54 44 8 44 352
173 176 169 147 153 157 157 152 155 143 146 153 140 140 128 121 125 125 122 107 95 94 103 88 73 79 71 62 45 34 32 0
173 175 164 158 155 155 154 153 154 150 154 156 149 137 123 126 119 119 123 106 116 100 101 85 76 80 68 59 57 42 38 29
175 176 168 160 160 159 157 154 155 157 154 148 127 111 113 113 129 123 130 114 103 103 92 86 82 85 81 75 69 68 60 36
177 173 167 166 165 158 156 156 157 159 169 164 162 156 158 155 149 138 124 114 106 100 94 89 96 92 87 76 70 81 83 53
183 177 171 168 160 160 155 156 161 165 164 157 157 157 165 137 138 132 128 121 115 102 98 95 89 86 94 83 77 86 83 87
183 175 161 160 156 155 152 157 165 164 153 156 158 153 148 144 147 142 140 131 125 110 101 100 89 92 90 83 91 100 105 101
171 166 164 158 161 161 155 157 163 156 154 157 145 148 150 150 150 150 146 139 132 114 105 96 97 95 90 84 88 90 110 108
167 170 167 161 161 157 154 157 153 154 146 138 142 144 149 152 148 145 133 135 127 117 109 101 97 86 75 90 85 78 93 105
160 163 161 154 157 159 155 154 153 149 134 132 136 139 139 142 123 115 121 125 115 108 111 103 92 82 71 97 82 66 76 101
140 148 148 140 142 144 150 146 146 136 129 128 120 120 121 125 118 118 120 114 113 107 107 98 90 77 80 88 75 68 75 72
134 140 144 144 145 146 140 138 136 132 131 121 118 121 114 108 112 117 112 111 115 119 113 111 106 95 89 87 89 82 85 79
89 108 130 131 135 143 136 138 137 138 130 117 116 115 117 116 121 124 124 129 120 117 121 117 113 111 100 100 95 99 103 99
88 77 122 134 141 134 136 137 136 132 124 122 125 126 133 133 134 135 126 130 111 109 111 114 115 117 114 115 122 121 119 118
132 133 142 150 147 135 135 139 137 135 133 134 135 138 139 142 141 129 147 127 121 121 117 117 112 101 109 137 139 140 135 118
150 143 147 155 141 138 140 136 135 139 139 145 137 130 131 145 137 145 149 131 135 137 135 120 102 91 84 126 130 140 128 123
164 158 156 163 160 155 148 144 141 137 134 138 131 132 143 152 147 158 139 133 147 136 120 114 102 107 111 120 104 91 90 104
166 169 168 163 163 156 157 153 146 143 142 144 140 139 157 152 158 142 127 126 120 117 113 112 113 115 126 117 108 95 93 87
169 168 157 165 150 150 147 147 145 146 147 150 144 150 157 156 141 126 127 129 125 126 118 121 125 152 138 128 117 102 90 84